Hourly Weather Rusera

Today, 20 April, Tuesday

Time Temperature Precipitation Wind Pressure Humidity
00:00 +31°C° 0 mm 3 mps 749 mmHg 10%
01:00 +30°C° 0 mm 3 mps 748 mmHg 11%
02:00 +30°C° 0 mm 3 mps 748 mmHg 11%
03:00 +29°C° 0 mm 3 mps 748 mmHg 11%
04:00 +28°C° 0 mm 2 mps 748 mmHg 12%
05:00 +27°C° 0 mm 2 mps 749 mmHg 13%
06:00 +27°C° 0 mm 1 mps 749 mmHg 14%
07:00 +30°C° 0 mm 1 mps 750 mmHg 13%
08:00 +32°C° 0 mm 1 mps 751 mmHg 11%
09:00 +35°C° 0 mm 1 mps 751 mmHg 10%
10:00 +38°C° 0 mm 2 mps 751 mmHg 9%
11:00 +42°C° 0 mm 3 mps 750 mmHg 8%
12:00 +44°C° 0 mm 3 mps 750 mmHg 7%
13:00 +45°C° 0 mm 4 mps 749 mmHg 7%
14:00 +46°C° 0 mm 5 mps 748 mmHg 6%
15:00 +47°C° 0 mm 6 mps 747 mmHg 6%
16:00 +46°C° 0 mm 5 mps 747 mmHg 6%
17:00 +45°C° 0 mm 4 mps 747 mmHg 6%
18:00 +44°C° 0 mm 3 mps 746 mmHg 6%
19:00 +42°C° 0 mm 3 mps 747 mmHg 7%
20:00 +39°C° 0 mm 2 mps 748 mmHg 8%
21:00 +36°C° 0 mm 2 mps 748 mmHg 9%
22:00 +35°C° 0 mm 2 mps 748 mmHg 10%
23:00 +34°C° 0 mm 3 mps 749 mmHg 12%

Tomorrow, 21 April, Wednesday

Time Temperature Precipitation Wind Pressure Humidity
00:00 +33°C° 0 mm 3 mps 749 mmHg 13%
01:00 +32°C° 0 mm 4 mps 749 mmHg 19%
02:00 +30°C° 0 mm 4 mps 748 mmHg 26%
03:00 +29°C° 0 mm 4 mps 748 mmHg 32%
04:00 +29°C° 0 mm 4 mps 748 mmHg 35%
05:00 +28°C° 0 mm 4 mps 749 mmHg 39%
06:00 +28°C° 0 mm 4 mps 749 mmHg 42%
07:00 +30°C° 0 mm 5 mps 750 mmHg 38%
08:00 +34°C° 0 mm 6 mps 750 mmHg 34%
09:00 +36°C° 0 mm 7 mps 751 mmHg 30%
10:00 +39°C° 0 mm 6 mps 751 mmHg 26%
11:00 +42°C° 0 mm 6 mps 750 mmHg 21%
12:00 +45°C° 0 mm 5 mps 750 mmHg 16%
13:00 +45°C° 0 mm 4 mps 749 mmHg 14%
14:00 +45°C° 0 mm 4 mps 748 mmHg 13%
15:00 +46°C° 0 mm 3 mps 747 mmHg 11%
16:00 +45°C° 0 mm 3 mps 747 mmHg 11%
17:00 +45°C° 0 mm 3 mps 747 mmHg 11%
18:00 +44°C° 0 mm 4 mps 747 mmHg 12%
19:00 +42°C° 0 mm 4 mps 748 mmHg 14%
20:00 +40°C° 0 mm 5 mps 748 mmHg 17%
21:00 +38°C° 0 mm 6 mps 749 mmHg 19%
22:00 +36°C° 0 mm 5 mps 749 mmHg 20%
23:00 +35°C° 0 mm 3 mps 750 mmHg 21%

Day after tomorrow, 22 April, Thursday

Time Temperature Precipitation Wind Pressure Humidity
00:00 +34°C° 0 mm 2 mps 750 mmHg 22%
01:00 +34°C° 0 mm 2 mps 749 mmHg 23%
02:00 +34°C° 0 mm 2 mps 749 mmHg 24%
03:00 +32°C° 0 mm 2 mps 749 mmHg 25%
04:00 +32°C° 0 mm 2 mps 749 mmHg 27%
05:00 +32°C° 0 mm 2 mps 749 mmHg 28%
06:00 +32°C° 0 mm 2 mps 750 mmHg 30%
07:00 +34°C° 0 mm 2 mps 750 mmHg 28%
08:00 +36°C° 0 mm 2 mps 751 mmHg 26%
09:00 +38°C° 0 mm 2 mps 751 mmHg 24%
10:00 +39°C° 0 mm 2 mps 751 mmHg 21%
11:00 +41°C° 0 mm 2 mps 751 mmHg 17%
12:00 +42°C° 0 mm 1 mps 750 mmHg 14%
13:00 +43°C° 0 mm 2 mps 749 mmHg 13%
14:00 +45°C° 0 mm 2 mps 748 mmHg 11%
15:00 +46°C° 0 mm 3 mps 747 mmHg 9%
16:00 +45°C° 0 mm 4 mps 747 mmHg 9%
17:00 +46°C° 0 mm 5 mps 747 mmHg 9%
18:00 +45°C° 0 mm 7 mps 747 mmHg 8%
19:00 +42°C° 0 mm 6 mps 747 mmHg 9%
20:00 +41°C° 0 mm 5 mps 748 mmHg 11%
21:00 +39°C° 0 mm 5 mps 749 mmHg 12%
22:00 +37°C° 0 mm 4 mps 749 mmHg 13%
23:00 +35°C° 0 mm 4 mps 749 mmHg 14%

23 April, Friday

Time Temperature Precipitation Wind Pressure Humidity
00:00 +34°C° 0 mm 3 mps 749 mmHg 16%
01:00 +33°C° 0 mm 3 mps 748 mmHg 17%
02:00 +31°C° 0 mm 3 mps 748 mmHg 18%
03:00 +30°C° 0 mm 2 mps 748 mmHg 19%
04:00 +29°C° 0 mm 2 mps 749 mmHg 24%
05:00 +28°C° 0 mm 2 mps 749 mmHg 28%
06:00 +27°C° 0 mm 2 mps 750 mmHg 33%
07:00 +30°C° 0 mm 2 mps 750 mmHg 31%
08:00 +32°C° 0 mm 2 mps 751 mmHg 30%
09:00 +35°C° 0 mm 2 mps 751 mmHg 28%
10:00 +38°C° 0 mm 2 mps 751 mmHg 22%
11:00 +40°C° 0 mm 2 mps 751 mmHg 17%
12:00 +42°C° 0 mm 2 mps 750 mmHg 11%
13:00 +44°C° 0 mm 3 mps 749 mmHg 9%
14:00 +45°C° 0 mm 4 mps 748 mmHg 7%
15:00 +47°C° 0 mm 5 mps 747 mmHg 5%
16:00 +46°C° 0 mm 5 mps 747 mmHg 5%
17:00 +46°C° 0 mm 5 mps 747 mmHg 5%
18:00 +45°C° 0 mm 5 mps 747 mmHg 4%
19:00 +42°C° 0 mm 5 mps 748 mmHg 5%
20:00 +40°C° 0 mm 4 mps 748 mmHg 6%
21:00 +36°C° 0 mm 3 mps 749 mmHg 6%
22:00 +35°C° 0 mm 3 mps 749 mmHg 7%
23:00 +34°C° 0 mm 3 mps 749 mmHg 8%

24 April, Saturday

Time Temperature Precipitation Wind Pressure Humidity
00:00 +33°C° 0 mm 3 mps 749 mmHg 9%
01:00 +33°C° 0 mm 3 mps 748 mmHg 10%
02:00 +31°C° 0 mm 3 mps 748 mmHg 10%
03:00 +30°C° 0 mm 3 mps 748 mmHg 11%
04:00 +30°C° 0 mm 3 mps 748 mmHg 11%
05:00 +29°C° 0 mm 3 mps 748 mmHg 11%
06:00 +28°C° 0 mm 3 mps 749 mmHg 11%
07:00 +33°C° 0 mm 3 mps 749 mmHg 10%
08:00 +36°C° 0 mm 2 mps 750 mmHg 8%
09:00 +39°C° 0 mm 2 mps 750 mmHg 7%
10:00 +42°C° 0 mm 3 mps 750 mmHg 6%
11:00 +45°C° 0 mm 4 mps 750 mmHg 5%
12:00 +48°C° 0 mm 5 mps 749 mmHg 5%
13:00 +48°C° 0 mm 6 mps 748 mmHg 4%
14:00 +49°C° 0 mm 6 mps 748 mmHg 4%
15:00 +50°C° 0 mm 7 mps 747 mmHg 4%
16:00 +48°C° 0 mm 6 mps 747 mmHg 4%
17:00 +47°C° 0 mm 6 mps 747 mmHg 4%
18:00 +46°C° 0 mm 5 mps 747 mmHg 4%
19:00 +43°C° 0 mm 5 mps 747 mmHg 5%
20:00 +41°C° 0 mm 4 mps 747 mmHg 6%
21:00 +37°C° 0 mm 3 mps 748 mmHg 7%
22:00 +37°C° 0 mm 3 mps 748 mmHg 8%
23:00 +36°C° 0 mm 4 mps 748 mmHg 8%

25 April, Sunday

Time Temperature Precipitation Wind Pressure Humidity
00:00 +35°C° 0 mm 4 mps 748 mmHg 9%
01:00 +34°C° 0 mm 3 mps 747 mmHg 10%
02:00 +34°C° 0 mm 3 mps 747 mmHg 11%
03:00 +33°C° 0 mm 3 mps 747 mmHg 12%
04:00 +31°C° 0 mm 3 mps 747 mmHg 13%
05:00 +30°C° 0 mm 2 mps 748 mmHg 14%
06:00 +29°C° 0 mm 2 mps 748 mmHg 15%
07:00 +32°C° 0 mm 2 mps 749 mmHg 12%
08:00 +36°C° 0 mm 2 mps 750 mmHg 10%
09:00 +39°C° 0 mm 2 mps 750 mmHg 8%
10:00 +42°C° 0 mm 2 mps 750 mmHg 7%
11:00 +45°C° 0 mm 3 mps 749 mmHg 6%
12:00 +47°C° 0 mm 3 mps 749 mmHg 5%
13:00 +49°C° 0 mm 4 mps 748 mmHg 5%
14:00 +50°C° 0 mm 5 mps 747 mmHg 4%
15:00 +50°C° 0 mm 5 mps 746 mmHg 4%
16:00 +49°C° 0 mm 5 mps 746 mmHg 4%
17:00 +48°C° 0 mm 5 mps 746 mmHg 4%
18:00 +48°C° 0 mm 5 mps 746 mmHg 5%
19:00 +45°C° 0 mm 5 mps 746 mmHg 6%
20:00 +42°C° 0 mm 4 mps 747 mmHg 6%
21:00 +38°C° 0 mm 4 mps 747 mmHg 7%
22:00 +37°C° 0 mm 4 mps 747 mmHg 8%
23:00 +37°C° 0 mm 4 mps 747 mmHg 9%
Show more